TimeCST,TemperatureF,Dew PointF,Humidity,Sea Level PressureIn,VisibilityMPH,Wind Direction,Wind SpeedMPH,Gust SpeedMPH,PrecipitationIn,Events,Conditions,WindDirDegrees,DateUTC
12:15 AM,17.6,15.8,93,30.10,10.0,Calm,Calm,-,N/A,,Clear,0,2013-03-04 06:15:00
12:35 AM,17.6,15.8,93,30.10,10.0,Calm,Calm,-,N/A,,Clear,0,2013-03-04 06:35:00
12:55 AM,17.6,14.0,86,30.12,10.0,Calm,Calm,-,N/A,,Clear,0,2013-03-04 06:55:00
1:15 AM,17.6,15.8,93,30.11,10.0,Calm,Calm,-,N/A,,Clear,0,2013-03-04 07:15:00
1:35 AM,15.8,14.0,93,30.12,10.0,Calm,Calm,-,N/A,,Clear,0,2013-03-04 07:35:00
1:55 AM,17.6,15.8,93,30.12,10.0,Calm,Calm,-,N/A,,Clear,0,2013-03-04 07:55:00
2:15 AM,17.6,15.8,93,30.12,10.0,Calm,Calm,-,N/A,,Scattered Clouds,0,2013-03-04 08:15:00
2:35 AM,17.6,15.8,93,30.12,10.0,Calm,Calm,-,N/A,,Mostly Cloudy,0,2013-03-04 08:35:00
2:55 AM,15.8,14.0,93,30.12,10.0,Calm,Calm,-,N/A,,Mostly Cloudy,0,2013-03-04 08:55:00
3:15 AM,17.6,14.0,86,30.12,10.0,Calm,Calm,-,N/A,,Mostly Cloudy,0,2013-03-04 09:15:00
3:35 AM,17.6,14.0,86,30.12,10.0,Calm,Calm,-,N/A,,Scattered Clouds,0,2013-03-04 09:35:00
3:55 AM,17.6,14.0,86,30.13,10.0,Calm,Calm,-,N/A,,Scattered Clouds,0,2013-03-04 09:55:00
4:15 AM,15.8,14.0,93,30.13,10.0,Calm,Calm,-,N/A,,Scattered Clouds,0,2013-03-04 10:15:00
4:35 AM,15.8,14.0,93,30.13,10.0,Calm,Calm,-,N/A,,Clear,0,2013-03-04 10:35:00
4:55 AM,17.6,14.0,86,30.13,10.0,Calm,Calm,-,N/A,,Mostly Cloudy,0,2013-03-04 10:55:00
5:15 AM,17.6,15.8,93,30.14,10.0,Calm,Calm,-,N/A,,Mostly Cloudy,0,2013-03-04 11:15:00
5:35 AM,17.6,15.8,93,30.14,10.0,Calm,Calm,-,N/A,,Scattered Clouds,0,2013-03-04 11:35:00
6:15 AM,19.4,15.8,86,30.13,10.0,Calm,Calm,-,N/A,,Clear,0,2013-03-04 12:15:00
6:35 AM,19.4,17.6,93,30.14,10.0,ENE,3.5,-,N/A,,Clear,70,2013-03-04 12:35:00
6:55 AM,19.4,17.6,93,30.14,10.0,Calm,Calm,-,N/A,,Clear,0,2013-03-04 12:55:00
7:15 AM,21.2,17.6,86,30.13,10.0,East,3.5,-,N/A,,Clear,90,2013-03-04 13:15:00
7:35 AM,23.0,19.4,86,30.13,10.0,Calm,Calm,-,N/A,,Clear,0,2013-03-04 13:35:00
7:55 AM,24.8,19.4,80,30.13,10.0,ENE,5.8,-,N/A,,Clear,70,2013-03-04 13:55:00
8:15 AM,26.6,21.2,80,30.14,10.0,Calm,Calm,-,N/A,,Clear,0,2013-03-04 14:15:00
8:35 AM,28.4,19.4,69,30.14,10.0,Calm,Calm,-,N/A,,Clear,0,2013-03-04 14:35:00
8:55 AM,28.4,19.4,69,30.13,10.0,ESE,3.5,-,N/A,,Clear,110,2013-03-04 14:55:00
9:15 AM,30.2,21.2,69,30.13,10.0,ESE,4.6,-,N/A,,Clear,120,2013-03-04 15:15:00
9:35 AM,30.2,19.4,64,30.13,10.0,East,3.5,-,N/A,,Clear,80,2013-03-04 15:35:00
9:55 AM,30.2,21.2,69,30.12,10.0,SE,4.6,-,N/A,,Clear,130,2013-03-04 15:55:00
10:15 AM,32.0,19.4,60,30.11,10.0,SE,4.6,-,N/A,,Clear,140,2013-03-04 16:15:00
10:55 AM,32.0,17.6,55,30.10,10.0,SE,3.5,-,N/A,,Clear,140,2013-03-04 16:55:00
11:15 AM,32.0,17.6,55,30.10,10.0,ESE,5.8,-,N/A,,Clear,120,2013-03-04 17:15:00
11:35 AM,33.8,19.4,56,30.09,10.0,SE,6.9,-,N/A,,Clear,140,2013-03-04 17:35:00
11:55 AM,33.8,19.4,56,30.08,10.0,Calm,Calm,-,N/A,,Clear,0,2013-03-04 17:55:00
12:15 PM,33.8,17.6,52,30.07,10.0,SSE,4.6,-,N/A,,Clear,160,2013-03-04 18:15:00
12:55 PM,35.6,17.6,48,30.07,10.0,SSE,5.8,-,N/A,,Clear,160,2013-03-04 18:55:00
1:15 PM,35.6,17.6,48,30.06,10.0,SSE,3.5,-,N/A,,Clear,150,2013-03-04 19:15:00
1:35 PM,33.8,17.6,52,30.05,10.0,ESE,6.9,-,N/A,,Clear,120,2013-03-04 19:35:00
1:55 PM,33.8,19.4,56,30.05,10.0,SE,6.9,-,N/A,,Scattered Clouds,130,2013-03-04 19:55:00
2:15 PM,33.8,19.4,56,30.05,10.0,SE,5.8,-,N/A,,Scattered Clouds,130,2013-03-04 20:15:00
2:35 PM,33.8,19.4,56,30.04,10.0,SE,4.6,-,N/A,,Mostly Cloudy,140,2013-03-04 20:35:00
2:55 PM,33.8,19.4,56,30.04,10.0,East,5.8,-,N/A,,Overcast,100,2013-03-04 20:55:00
3:15 PM,33.8,17.6,52,30.04,10.0,East,3.5,-,N/A,,Overcast,90,2013-03-04 21:15:00
3:35 PM,33.8,17.6,52,30.03,10.0,ESE,6.9,-,N/A,,Overcast,120,2013-03-04 21:35:00
3:55 PM,33.8,19.4,56,30.03,10.0,East,3.5,-,N/A,,Overcast,100,2013-03-04 21:55:00
4:15 PM,33.8,19.4,56,30.03,10.0,SE,3.5,-,N/A,,Overcast,130,2013-03-04 22:15:00
4:55 PM,33.8,19.4,56,30.02,10.0,East,3.5,-,N/A,,Overcast,100,2013-03-04 22:55:00
5:15 PM,33.8,19.4,56,30.02,10.0,East,5.8,-,N/A,,Overcast,90,2013-03-04 23:15:00
5:35 PM,33.8,19.4,56,30.02,10.0,East,4.6,-,N/A,,Overcast,90,2013-03-04 23:35:00
5:55 PM,33.8,19.4,56,30.02,10.0,East,3.5,-,N/A,,Overcast,80,2013-03-04 23:55:00
6:15 PM,33.8,19.4,56,30.02,10.0,Calm,Calm,-,N/A,,Overcast,0,2013-03-05 00:15:00
6:35 PM,33.8,19.4,56,30.03,10.0,Calm,Calm,-,N/A,,Overcast,0,2013-03-05 00:35:00
6:55 PM,33.8,19.4,56,30.04,10.0,East,3.5,-,N/A,,Overcast,90,2013-03-05 00:55:00
7:15 PM,33.8,19.4,56,30.04,10.0,Calm,Calm,-,N/A,,Overcast,0,2013-03-05 01:15:00
7:35 PM,33.8,21.2,60,30.04,10.0,Calm,Calm,-,N/A,,Overcast,0,2013-03-05 01:35:00
7:55 PM,33.8,21.2,60,30.05,10.0,Calm,Calm,-,N/A,,Overcast,0,2013-03-05 01:55:00
8:35 PM,32.0,23.0,69,30.05,10.0,ESE,4.6,-,N/A,,Overcast,120,2013-03-05 02:35:00
8:55 PM,32.0,23.0,69,30.05,10.0,East,4.6,-,N/A,,Overcast,100,2013-03-05 02:55:00
9:15 PM,32.0,23.0,69,30.05,10.0,ESE,3.5,-,N/A,,Overcast,120,2013-03-05 03:15:00
9:35 PM,32.0,23.0,69,30.06,10.0,Calm,Calm,-,N/A,,Overcast,0,2013-03-05 03:35:00
9:55 PM,32.0,26.6,80,30.06,10.0,SE,4.6,-,N/A,,Overcast,130,2013-03-05 03:55:00
10:15 PM,32.0,26.6,80,30.05,10.0,ESE,4.6,-,N/A,,Overcast,110,2013-03-05 04:15:00
10:35 PM,32.0,26.6,80,30.05,10.0,East,4.6,-,N/A,,Overcast,100,2013-03-05 04:35:00
10:55 PM,32.0,28.4,87,30.04,10.0,ESE,4.6,-,N/A,,Overcast,110,2013-03-05 04:55:00
11:15 PM,32.0,28.4,87,30.04,7.0,Calm,Calm,-,N/A,Snow,Light Snow,0,2013-03-05 05:15:00
11:35 PM,32.0,28.4,87,30.03,10.0,East,4.6,-,N/A,,Overcast,100,2013-03-05 05:35:00
11:55 PM,32.0,28.4,87,30.02,10.0,ENE,6.9,-,N/A,,Overcast,70,2013-03-05 05:55:00